Location: Logan
(41.7360°N, 111.8340°W)
Time: 01:34:53
(UTC-06:00)

Daily predictions for brighter satellites

Satellite Brightness Start Highest point End
(mag) Time Altitude Azimuth Time Altitude Azimuth Time Altitude Azimuth
SL-16 R/B 4.1 03:15:01 29° N 03:15:01 29° N 03:18:01 10° N
Cosmos 2227 Rocket 3.9 03:31:57 28° NNE 03:31:57 28° NNE 03:34:32 10° NNE
ADEOS II 4.3 03:59:11 10° NE 04:03:01 20° E 04:05:08 16° ESE
ARIANE 5 R/B 3.9 04:03:34 10° NNE 04:06:19 33° N 04:06:19 33° N
Cosmos 2297 Rocket 3.3 04:14:32 36° N 04:14:32 36° N 04:18:05 10° NNE
Resurs 1-4 Rocket 3.5 04:07:28 10° N 04:10:17 32° N 04:10:17 32° N
Lacrosse 5 rocket 4.0 04:17:51 15° NNE 04:17:51 15° NNE 04:18:41 10° NNE
CZ-4C R/B 2.9 04:23:01 46° N 04:23:01 46° N 04:27:44 10° NNE
Cosmos 2026 Rocket 3.9 04:18:17 10° N 04:24:24 78° E 04:24:30 78° E
Atlas Centaur 2 4.4 04:35:07 11° SSE 04:35:07 11° SSE 04:35:39 10° SE
CZ-2D R/B 3.5 04:29:45 10° N 04:32:30 28° NNW 04:32:30 28° NNW
Cosmos 2279 Rocket 4.0 04:36:16 54° SSE 04:37:42 74° E 04:43:53 10° N
Tiangong 1 4.4 04:47:38 10° E 04:47:38 10° E 04:47:40 10° E
Cosmos 1603 4.1 04:41:30 10° NNW 04:47:06 60° ENE 04:52:42 10° SE
ADEOS 4.5 04:45:47 10° N 04:49:24 36° NW 04:49:24 36° NW
Cosmos 407 Rocket 3.4 04:51:50 77° WNW 04:51:50 77° WNW 04:57:10 10° NNE
Cosmos 44 Rocket 4.4 04:53:25 31° NNW 04:53:25 31° NNW 04:56:41 10° NNE
SL-16 R/B 4.5 05:00:07 13° NW 05:00:07 13° NW 05:00:52 10° NW
Cosmos 1300 Rocket 4.3 04:53:24 10° N 04:56:30 44° NNW 04:56:30 44° NNW
Cosmos 2227 4.1 05:03:13 55° SSW 05:04:32 88° WNW 05:10:13 10° NNE
Okean 3 3.3 05:12:29 78° WSW 05:12:38 79° W 05:16:57 10° N
Cosmos 405 Rocket 3.2 05:14:32 48° NNW 05:14:32 48° NNW 05:17:36 10° N
Cosmos 2227 Rocket 4.0 05:13:47 16° NW 05:13:47 16° NW 05:17:10 10° N
Cosmos 1943 4.0 05:08:35 10° NNW 05:14:11 53° ENE 05:19:43 10° SE
Cosmos 2180 Rocket 4.4 05:13:02 35° SSW 05:15:49 69° W 05:22:02 10° N
SL-24 DEB 4.2 05:17:35 10° N 05:22:23 79° W 05:24:57 28° SSW
Cosmos 2263 Rocket 2.8 05:23:52 11° S 05:29:14 56° ESE 05:34:48 10° NNE
Okean O Rocket 1.7 05:27:11 10° NNE 05:31:32 73° ESE 05:35:20 13° S
ISS -3.9 05:32:28 74° SSW 05:32:28 74° SSW 05:35:39 10° SE
Cosmos 1655 Rocket 4.4 05:28:30 10° NNW 05:34:20 40° W 05:37:47 22° SW
Cosmos 1378 Rocket 3.6 05:33:25 42° SW 05:34:32 54° W 05:38:52 10° N
Cosmos 1850 Rocket 4.3 05:30:51 10° S 05:36:04 67° ESE 05:41:23 10° NNE
ASTEX 1 3.4 05:31:31 10° N 05:36:20 57° W 05:39:13 24° SSW
Cosmos 1140 Rocket 3.5 05:35:07 30° SW 05:37:38 64° WNW 05:42:51 10° NNE
Abrixas rocket 2.8 05:37:47 40° S 05:38:26 46° SE 05:41:34 10° ENE
IRS-1C Rocket 4.5 05:35:10 10° NNE 05:40:26 65° ESE 05:45:40 10° S
Cosmos 1812 2.9 05:40:35 42° WSW 05:41:18 49° W 05:45:04 10° N
USA 215 3.9 05:36:34 10° ESE 05:42:52 54° NNE 05:49:13 10° NW
ADEOS II 2.3 05:37:55 10° N 05:43:01 51° WNW 05:46:04 23° SW
Cosmos 1975 3.2 05:40:46 10° N 05:44:51 67° E 05:48:56 10° SSE
Cosmos 2266 Rocket 4.0 05:43:19 10° NNW 05:49:41 67° W 05:56:01 10° S
Cosmos 1954 Rocket 4.4 05:47:22 27° WSW 05:49:49 44° WNW 05:54:55 10° N
Meteor PRIRODA 4.1 05:46:14 10° NNE 05:49:53 63° E 05:53:32 10° S
CZ-4B R/B 3.1 05:47:24 10° N 05:51:30 50° WNW 05:53:43 23° SW
Okean 1 Rocket 3.9 05:51:43 10° NNW 05:55:33 29° W 05:57:05 23° WSW
CZ-4B R/B 3.0 05:50:31 10° NNE 05:55:50 84° WNW 06:01:09 10° SSW
Cosmos 1570 Rocket 4.0 05:50:54 10° NNW 05:56:13 87° ENE 06:01:32 10° SSE
Molniya-1 4.3 05:55:57 21° SSE 05:56:43 28° SE 05:58:22 10° ENE
Cosmos 2208 Rocket 4.1 05:53:00 10° NNW 05:58:21 82° ENE 06:03:35 10° SSE
Okean 1 3.2 05:54:43 10° SSW 05:58:39 66° W 06:02:38 10° N
DELTA 2 R/B (1) 3.6 05:58:37 22° WSW 06:02:17 71° S 06:07:50 10° E
Cosmos 1441 Rocket 4.4 06:02:06 22° W 06:02:26 23° WNW 06:05:28 10° NNW
CZ-3 R/B 3.7 05:51:33 12° SW 06:05:29 29° S 06:11:13 10° SE
Cosmos 1500 3.5 06:01:57 10° NNW 06:05:30 40° W 06:09:02 10° SSW
CZ-4B R/B 3.8 06:03:19 10° NNE 06:07:09 82° E 06:11:08 10° S
COSMO-SKYMED 1 4.3 06:05:29 10° SE 06:09:29 37° ENE 06:13:30 10° N
USA 116 3.5 06:06:10 10° SSE 06:09:32 71° ENE 06:12:42 10° N
CZ-4C R/B 4.2 06:08:36 10° WNW 06:11:56 15° NNW 06:15:31 10° NNE
Meteor 1-18 Rocket 4.5 06:06:38 10° SSW 06:12:23 52° WNW 06:18:12 10° N
Cosmos 220 Rocket 4.0 06:08:42 10° SSW 06:12:53 61° WNW 06:17:11 10° NNE
Meteor 1-31 Rocket 2.7 06:13:56 10° N 06:17:50 69° WNW 06:21:40 10° SSW
EO 1 Del DPAF 3.4 06:15:02 10° SSE 06:18:51 78° ENE 06:22:41 10° N
Tiangong 1 0.7 06:18:27 18° WNW 06:20:17 72° N 06:22:58 10° E
MTI 3.7 06:17:03 10° SSE 06:20:18 84° W 06:23:33 10° NNW
Atlas Centaur 2 3.6 06:18:17 10° SW 06:21:56 19° S 06:25:06 10° SE
Cosmos 2084 3.9 06:19:09 10° NW 06:22:34 31° WSW 06:26:05 10° S
Meteor 1-4 Rocket 2.7 06:19:10 10° N 06:22:40 73° E 06:26:07 10° SSE
CZ-2C R/B 3.8 06:21:55 10° S 06:26:29 56° W 06:31:10 10° NNW
Intercosmos 25 Rocket 3.6 06:21:47 10° SSW 06:26:38 50° W 06:30:03 10° N
Okean-O 3.0 06:23:11 10° NNE 06:27:38 71° ESE 06:32:03 10° S
Cosmos 1544 Rocket 3.9 06:31:54 10° NNW 06:35:59 42° W 06:40:04 10° SSW
Cosmos 1975 Rocket 4.3 06:33:18 10° SW 06:36:48 22° WNW 06:40:17 10° NNW
Cosmos 1607 4.2 06:31:17 10° SW 06:37:21 53° NW 06:43:35 10° NNE
Feng Yun 1-1 Rocket 4.2 06:34:56 10° NNE 06:40:21 85° WNW 06:45:45 10° SSW
BREEZE-M DEB (TANK) 2.6 06:36:16 10° WNW 06:40:49 71° NNE 06:43:12 10° ESE
Cosmos 1455 Rocket 3.5 06:40:14 10° NNW 06:44:16 38° W 06:48:16 10° SSW
Cosmos 1743 3.3 06:43:45 10° NNW 06:47:22 36° W 06:50:57 10° SSW
Cosmos 1666 2.9 06:43:50 10° NNW 06:47:27 46° W 06:51:03 10° SSW
IDEFIX/ARIANE 42P 3.4 06:46:16 10° NNE 06:51:29 58° E 06:56:40 10° S
Meteor 1-13 Rocket 4.5 06:46:59 10° SSW 06:52:49 58° WNW 06:58:41 10° N
